BCS8TH LIPE-EDDP

Flight info

Callsign BCS8TH
Flight time 1h 6m
Altitude 34000
Route LUMAV DCT VIC DCT ROKIB DCT GIKEB DCT BRENO DCT KONIN DCT ERNAS M726 LASGA T953 VOCIM T954 GOXLI GOXLI1R
Aircraft A306/H-SDE3FGHIRWY/LB1

Departure

Time 2026-05-06 19:09
Airport Bologna Guglielmo Marconi Airport (LIPE)

Arrival

Time 2026-05-06 20:15
Airport Leipzig/Halle Airport (EDDP)
Time Latitude Longitude Altitude Speed Heading
2026-05-06 18:43 44.53410 11.28219 136 ft 0 kts 206°
2026-05-06 18:54 44.53432 11.28234 136 ft 4 kts 206°
2026-05-06 18:54 44.53456 11.28251 136 ft 4 kts 206°
2026-05-06 18:55 44.53479 11.28268 136 ft 2 kts 206°
2026-05-06 18:55 44.53499 11.28286 136 ft 4 kts 237°
2026-05-06 18:55 44.53504 11.28317 136 ft 4 kts 293°
2026-05-06 18:55 44.53489 11.28348 136 ft 4 kts 310°
2026-05-06 18:56 44.53473 11.28377 136 ft 3 kts 298°
2026-05-06 18:56 44.53472 11.28380 136 ft 0 kts 296°
2026-05-06 19:04 44.53484 11.28347 136 ft 10 kts 296°
2026-05-06 19:05 44.53547 11.28289 136 ft 14 kts 319°
2026-05-06 19:05 44.53606 11.28147 136 ft 21 kts 297°
2026-05-06 19:05 44.53684 11.27931 136 ft 29 kts 297°
2026-05-06 19:05 44.53786 11.27648 136 ft 35 kts 297°
2026-05-06 19:06 44.53866 11.27426 136 ft 0 kts 297°
2026-05-06 19:06 44.53866 11.27424 136 ft 0 kts 297°
2026-05-06 19:06 44.53868 11.27419 136 ft 0 kts 297°
2026-05-06 19:07 44.53884 11.27383 136 ft 9 kts 308°
2026-05-06 19:07 44.53953 11.27292 136 ft 18 kts 325°
2026-05-06 19:07 44.54061 11.27223 136 ft 14 kts
2026-05-06 19:07 44.54101 11.27298 135 ft 8 kts 94°
2026-05-06 19:08 44.54085 11.27363 136 ft 9 kts 114°
2026-05-06 19:08 44.54016 11.27555 133 ft 39 kts 117°
2026-05-06 19:08 44.53775 11.28236 135 ft 116 kts 118°
2026-05-06 19:08 44.53314 11.29516 332 ft 163 kts 117°
2026-05-06 19:09 44.52871 11.30939 1382 ft 162 kts 102°
2026-05-06 19:09 44.53141 11.32568 1917 ft 196 kts 54°
2026-05-06 19:09 44.54348 11.33784 2297 ft 236 kts 25°
2026-05-06 19:09 44.55936 11.34807 2882 ft 264 kts 24°
2026-05-06 19:10 44.57624 11.36006 3752 ft 279 kts 26°
2026-05-06 19:10 44.59348 11.37355 4510 ft 288 kts 27°
2026-05-06 19:10 44.61098 11.38804 4897 ft 295 kts 29°
2026-05-06 19:10 44.62855 11.40295 5052 ft 294 kts 27°
2026-05-06 19:11 44.64719 11.41336 5378 ft 286 kts 12°
2026-05-06 19:11 44.66663 11.41998 6209 ft 289 kts
2026-05-06 19:11 44.68654 11.42530 7300 ft 293 kts
2026-05-06 19:11 44.70683 11.42986 8442 ft 297 kts
2026-05-06 19:12 44.72748 11.43408 9552 ft 303 kts
2026-05-06 19:12 44.74862 11.43825 10436 ft 315 kts
2026-05-06 19:12 44.77123 11.44269 10845 ft 340 kts
2026-05-06 19:12 44.79546 11.44753 11185 ft 363 kts
2026-05-06 19:13 44.82110 11.45278 11552 ft 383 kts
2026-05-06 19:13 44.84790 11.45841 12142 ft 393 kts
2026-05-06 19:13 44.87525 11.46422 12808 ft 400 kts
2026-05-06 19:13 44.90302 11.47014 13499 ft 406 kts
2026-05-06 19:14 44.93120 11.47615 14147 ft 412 kts
2026-05-06 19:14 44.95933 11.48212 14779 ft 417 kts
2026-05-06 19:14 44.98816 11.48823 15431 ft 422 kts
2026-05-06 19:14 45.01740 11.49442 16080 ft 427 kts
2026-05-06 19:15 45.04698 11.50068 16732 ft 432 kts
2026-05-06 19:15 45.07688 11.50701 17398 ft 436 kts
2026-05-06 19:15 45.10710 11.51342 18045 ft 441 kts
2026-05-06 19:15 45.13747 11.51986 18602 ft 445 kts
2026-05-06 19:16 45.16840 11.52645 19136 ft 450 kts
2026-05-06 19:16 45.19945 11.53307 19685 ft 453 kts
2026-05-06 19:16 45.23074 11.53975 20208 ft 457 kts
2026-05-06 19:16 45.26231 11.54650 20713 ft 461 kts
2026-05-06 19:17 45.29413 11.55330 21193 ft 464 kts
2026-05-06 19:17 45.32627 11.56018 21669 ft 468 kts
2026-05-06 19:17 45.35861 11.56711 22143 ft 472 kts
2026-05-06 19:17 45.39121 11.57411 22622 ft 476 kts
2026-05-06 19:18 45.42412 11.58117 22998 ft 481 kts
2026-05-06 19:18 45.45734 11.58831 23436 ft 484 kts
2026-05-06 19:18 45.49079 11.59552 23805 ft 488 kts
2026-05-06 19:18 45.52445 11.60278 24148 ft 491 kts
2026-05-06 19:19 45.55844 11.61010 24495 ft 494 kts
2026-05-06 19:19 45.59249 11.61736 24826 ft 498 kts
2026-05-06 19:19 45.62689 11.62477 25100 ft 502 kts
2026-05-06 19:19 45.66154 11.63231 25447 ft 505 kts
2026-05-06 19:20 45.69641 11.63992 25768 ft 507 kts
2026-05-06 19:20 45.73152 11.64758 26073 ft 510 kts
2026-05-06 19:20 45.76667 11.65525 26403 ft 513 kts
2026-05-06 19:20 45.80205 11.66297 26701 ft 516 kts
2026-05-06 19:21 45.83767 11.67074 27007 ft 518 kts
2026-05-06 19:21 45.87279 11.67842 27294 ft 520 kts
2026-05-06 19:21 45.90880 11.68627 27407 ft 526 kts
2026-05-06 19:21 45.94511 11.69231 27647 ft 522 kts 355°
2026-05-06 19:22 45.98088 11.68787 28029 ft 513 kts 345°
2026-05-06 19:22 46.01554 11.67769 28643 ft 505 kts 340°
2026-05-06 19:22 46.04964 11.66561 29084 ft 504 kts 338°
2026-05-06 19:22 46.08355 11.65326 29529 ft 503 kts 339°
2026-05-06 19:23 46.11756 11.64142 30007 ft 503 kts 339°
2026-05-06 19:23 46.15172 11.63033 30387 ft 503 kts 340°
2026-05-06 19:23 46.18598 11.61976 30718 ft 503 kts 341°
2026-05-06 19:23 46.22031 11.60947 31053 ft 502 kts 341°
2026-05-06 19:24 46.25446 11.59931 31439 ft 501 kts 341°
2026-05-06 19:24 46.28859 11.58919 31736 ft 500 kts 341°
2026-05-06 19:24 46.32265 11.57907 32002 ft 500 kts 341°
2026-05-06 19:24 46.35670 11.56875 32241 ft 500 kts 341°
2026-05-06 19:25 46.39069 11.55829 32626 ft 499 kts 341°
2026-05-06 19:25 46.42457 11.54815 33145 ft 495 kts 341°
2026-05-06 19:25 46.45823 11.53785 33633 ft 493 kts 341°
2026-05-06 19:25 46.49174 11.52747 33859 ft 493 kts 341°
2026-05-06 19:26 46.52495 11.51724 33889 ft 482 kts 341°
2026-05-06 19:26 46.58962 11.49742 33892 ft 472 kts 341°
2026-05-06 19:27 46.65372 11.47766 33881 ft 470 kts 341°
2026-05-06 19:27 46.71764 11.45794 33878 ft 469 kts 341°
2026-05-06 19:28 46.78160 11.43820 33891 ft 469 kts 341°
2026-05-06 19:28 46.84546 11.41832 33874 ft 469 kts 341°
2026-05-06 19:29 46.90916 11.39866 33850 ft 467 kts 341°
2026-05-06 19:29 46.97240 11.37935 33860 ft 469 kts 343°
2026-05-06 19:30 47.03804 11.37219 33836 ft 477 kts 354°
2026-05-06 19:30 47.10456 11.37310 33837 ft 479 kts 355°
2026-05-06 19:31 47.17129 11.37431 33829 ft 479 kts 355°
2026-05-06 19:31 47.27109 11.37407 33832 ft 476 kts 354°
2026-05-06 19:32 47.33721 11.37337 33831 ft 474 kts 354°
2026-05-06 19:32 47.39206 11.37268 33843 ft 474 kts 354°
2026-05-06 19:33 47.45794 11.37195 33815 ft 474 kts 354°
2026-05-06 19:33 47.52382 11.37141 33826 ft 472 kts 354°
2026-05-06 19:34 47.58954 11.37078 33852 ft 472 kts 354°
2026-05-06 19:34 47.65514 11.37013 33849 ft 470 kts 355°
2026-05-06 19:35 47.72043 11.36948 33857 ft 467 kts 355°
2026-05-06 19:35 47.78540 11.36883 33859 ft 467 kts 355°
2026-05-06 19:36 47.85040 11.36795 33889 ft 466 kts 354°
2026-05-06 19:36 47.91490 11.36116 33898 ft 464 kts 350°
2026-05-06 19:37 47.97879 11.35095 33909 ft 465 kts 349°
2026-05-06 19:37 48.04308 11.34062 33912 ft 465 kts 349°
2026-05-06 19:38 48.10752 11.33076 33911 ft 465 kts 350°
2026-05-06 19:38 48.17194 11.32114 33912 ft 466 kts 350°
2026-05-06 19:39 48.23644 11.31155 33899 ft 466 kts 350°
2026-05-06 19:39 48.30097 11.30189 33889 ft 465 kts 350°
2026-05-06 19:40 48.36539 11.29221 33878 ft 466 kts 350°
2026-05-06 19:40 48.42950 11.28256 33866 ft 466 kts 350°
2026-05-06 19:41 48.49405 11.27284 33873 ft 466 kts 351°
2026-05-06 19:41 48.55862 11.26305 33860 ft 467 kts 351°
2026-05-06 19:42 48.62338 11.25320 33852 ft 467 kts 351°
2026-05-06 19:42 48.68806 11.24335 33864 ft 467 kts 351°
2026-05-06 19:43 48.75276 11.23348 33851 ft 467 kts 351°
2026-05-06 19:43 48.81750 11.22357 33855 ft 468 kts 351°
2026-05-06 19:44 48.88234 11.21780 33855 ft 471 kts 356°
2026-05-06 19:44 48.94791 11.21836 33850 ft 471 kts 358°
2026-05-06 19:45 49.01354 11.21982 33847 ft 472 kts 358°
2026-05-06 19:45 49.07930 11.22069 33465 ft 472 kts 358°
2026-05-06 19:46 49.11219 11.22094 33061 ft 473 kts 358°
2026-05-06 19:46 49.14521 11.22113 32654 ft 473 kts 358°
2026-05-06 19:46 49.17814 11.22129 32253 ft 474 kts 358°
2026-05-06 19:46 49.21111 11.22146 31858 ft 474 kts 358°
2026-05-06 19:47 49.24415 11.22166 31478 ft 476 kts 358°
2026-05-06 19:47 49.27735 11.22190 31093 ft 477 kts 359°
2026-05-06 19:47 49.31059 11.22216 30720 ft 478 kts 359°
2026-05-06 19:47 49.34382 11.22244 30346 ft 478 kts 359°
2026-05-06 19:48 49.37708 11.22272 29983 ft 478 kts 359°
2026-05-06 19:48 49.41047 11.22300 29572 ft 479 kts 359°
2026-05-06 19:48 49.44349 11.22329 29195 ft 469 kts 360°
2026-05-06 19:48 49.47584 11.22357 28520 ft 463 kts 360°
2026-05-06 19:49 49.50788 11.22385 27813 ft 458 kts 360°
2026-05-06 19:49 49.53962 11.22412 27185 ft 452 kts 360°
2026-05-06 19:49 49.57090 11.22432 26559 ft 447 kts 360°
2026-05-06 19:49 49.60183 11.22442 25960 ft 441 kts 359°
2026-05-06 19:50 49.63234 11.22446 25382 ft 436 kts 359°
2026-05-06 19:50 49.66207 11.22449 24841 ft 431 kts 359°
2026-05-06 19:50 49.69186 11.22450 24309 ft 426 kts 359°
2026-05-06 19:50 49.72134 11.22455 23794 ft 421 kts 359°
2026-05-06 19:51 49.75045 11.22461 23235 ft 416 kts 359°
2026-05-06 19:51 49.77927 11.22470 22657 ft 411 kts 359°
2026-05-06 19:51 49.80772 11.22484 22088 ft 406 kts 359°
2026-05-06 19:51 49.83581 11.22501 21540 ft 401 kts 359°
2026-05-06 19:52 49.86353 11.22518 21158 ft 392 kts 359°
2026-05-06 19:52 49.89035 11.22537 20954 ft 379 kts 358°
2026-05-06 19:52 49.91652 11.22555 20758 ft 378 kts 358°
2026-05-06 19:52 49.94337 11.22567 20547 ft 391 kts 358°
2026-05-06 19:53 49.97044 11.22579 20429 ft 395 kts 358°
2026-05-06 19:53 49.99795 11.22593 20324 ft 395 kts 358°
2026-05-06 19:53 50.02542 11.22608 20229 ft 394 kts 358°
2026-05-06 19:53 50.05283 11.22625 20123 ft 393 kts 358°
2026-05-06 19:54 50.08016 11.22643 20021 ft 393 kts 358°
2026-05-06 19:54 50.10746 11.22660 19916 ft 392 kts 358°
2026-05-06 19:54 50.13466 11.22677 19822 ft 391 kts 358°
2026-05-06 19:54 50.16180 11.22693 19725 ft 390 kts 358°
2026-05-06 19:55 50.18892 11.22708 19627 ft 389 kts 358°
2026-05-06 19:55 50.21599 11.22724 19530 ft 388 kts 358°
2026-05-06 19:55 50.24300 11.22740 19431 ft 388 kts 358°
2026-05-06 19:55 50.26995 11.22756 19333 ft 387 kts 358°
2026-05-06 19:56 50.29686 11.22819 19225 ft 387 kts
2026-05-06 19:56 50.32355 11.23453 19135 ft 388 kts 10°
2026-05-06 19:56 50.34990 11.24388 19042 ft 388 kts 12°
2026-05-06 19:56 50.37593 11.25391 18767 ft 383 kts 13°
2026-05-06 19:57 50.40164 11.26411 18336 ft 377 kts 13°
2026-05-06 19:57 50.42678 11.27426 17923 ft 369 kts 13°
2026-05-06 19:57 50.45145 11.28429 17379 ft 364 kts 13°
2026-05-06 19:57 50.47588 11.29425 16823 ft 361 kts 13°
2026-05-06 19:58 50.50010 11.30416 16274 ft 357 kts 13°
2026-05-06 19:58 50.52372 11.31383 15748 ft 354 kts 13°
2026-05-06 19:58 50.54771 11.32367 15206 ft 350 kts 13°
2026-05-06 19:58 50.57086 11.33318 14676 ft 347 kts 13°
2026-05-06 19:59 50.59411 11.34277 14169 ft 344 kts 13°
2026-05-06 19:59 50.61718 11.35228 13628 ft 341 kts 13°
2026-05-06 19:59 50.64003 11.36169 13062 ft 338 kts 13°
2026-05-06 19:59 50.66266 11.37102 12486 ft 335 kts 13°
2026-05-06 20:00 50.68511 11.38029 11923 ft 332 kts 13°
2026-05-06 20:00 50.70735 11.38949 11361 ft 329 kts 13°
2026-05-06 20:00 50.72944 11.39863 10809 ft 326 kts 13°
2026-05-06 20:00 50.75134 11.40771 10287 ft 324 kts 13°
2026-05-06 20:01 50.77285 11.41664 9947 ft 315 kts 13°
2026-05-06 20:01 50.79390 11.42538 9481 ft 311 kts 13°
2026-05-06 20:01 50.81473 11.43403 8980 ft 308 kts 13°
2026-05-06 20:01 50.83541 11.44262 8797 ft 306 kts 13°
2026-05-06 20:02 50.85602 11.45120 8779 ft 306 kts 13°
2026-05-06 20:02 50.87635 11.45966 8778 ft 306 kts 13°
2026-05-06 20:02 50.89696 11.46826 8774 ft 306 kts 13°
2026-05-06 20:02 50.91750 11.47683 8774 ft 303 kts 13°
2026-05-06 20:03 50.93767 11.48527 8781 ft 296 kts 13°
2026-05-06 20:03 50.95755 11.49358 8779 ft 295 kts 13°
2026-05-06 20:03 50.97733 11.50186 8781 ft 294 kts 13°
2026-05-06 20:03 50.99717 11.51018 8779 ft 295 kts 13°
2026-05-06 20:04 51.01700 11.51849 8777 ft 295 kts 13°
2026-05-06 20:04 51.03680 11.52680 8778 ft 295 kts 13°
2026-05-06 20:04 51.05666 11.53514 8778 ft 295 kts 13°
2026-05-06 20:04 51.07649 11.54348 8781 ft 295 kts 13°
2026-05-06 20:05 51.09635 11.55177 8782 ft 295 kts 13°
2026-05-06 20:05 51.11532 11.56399 8742 ft 297 kts 31°
2026-05-06 20:05 51.13126 11.58491 8311 ft 297 kts 43°
2026-05-06 20:05 51.14596 11.60784 7890 ft 294 kts 44°
2026-05-06 20:06 51.16037 11.63068 7467 ft 291 kts 44°
2026-05-06 20:06 51.17464 11.65338 7056 ft 288 kts 44°
2026-05-06 20:06 51.18854 11.67554 6867 ft 277 kts 44°
2026-05-06 20:06 51.20201 11.69671 6676 ft 267 kts 41°
2026-05-06 20:07 51.21620 11.71480 6411 ft 262 kts 35°
2026-05-06 20:07 51.23070 11.73151 6282 ft 252 kts 34°
2026-05-06 20:07 51.24471 11.74764 6064 ft 246 kts 34°
2026-05-06 20:07 51.25858 11.76359 5744 ft 245 kts 34°
2026-05-06 20:08 51.27236 11.77945 5439 ft 244 kts 34°
2026-05-06 20:08 51.28607 11.79522 5136 ft 240 kts 34°
2026-05-06 20:08 51.29948 11.81064 4641 ft 236 kts 34°
2026-05-06 20:08 51.31283 11.82601 4028 ft 237 kts 34°
2026-05-06 20:09 51.32620 11.84111 3558 ft 231 kts 34°
2026-05-06 20:09 51.33906 11.85525 3318 ft 217 kts 34°
2026-05-06 20:09 51.35137 11.86850 3021 ft 209 kts 35°
2026-05-06 20:09 51.36317 11.88094 2939 ft 200 kts 34°
2026-05-06 20:10 51.37477 11.89313 2941 ft 198 kts 34°
2026-05-06 20:10 51.38628 11.90524 2939 ft 198 kts 36°
2026-05-06 20:10 51.39435 11.92214 2940 ft 189 kts 68°
2026-05-06 20:10 51.39842 11.94157 2946 ft 185 kts 78°
2026-05-06 20:11 51.39997 11.96197 2937 ft 185 kts 86°
2026-05-06 20:11 51.40102 11.98239 2929 ft 179 kts 86°
2026-05-06 20:11 51.40193 12.00157 2929 ft 171 kts 86°
2026-05-06 20:11 51.40293 12.02049 2770 ft 170 kts 86°
2026-05-06 20:12 51.40385 12.03937 2503 ft 170 kts 86°
2026-05-06 20:12 51.40472 12.05824 2260 ft 168 kts 86°
2026-05-06 20:12 51.40558 12.07639 2037 ft 159 kts 86°
2026-05-06 20:12 51.40640 12.09363 1841 ft 150 kts 86°
2026-05-06 20:13 51.40715 12.10948 1649 ft 134 kts 86°
2026-05-06 20:13 51.40782 12.12390 1462 ft 128 kts 87°
2026-05-06 20:13 51.40848 12.13814 1287 ft 129 kts 86°
2026-05-06 20:13 51.40916 12.15262 1107 ft 131 kts 85°
2026-05-06 20:14 51.40984 12.16730 921 ft 132 kts 84°
2026-05-06 20:14 51.41053 12.18209 754 ft 134 kts 84°
2026-05-06 20:14 51.41125 12.19692 592 ft 133 kts 83°
2026-05-06 20:14 51.41191 12.21119 455 ft 120 kts 84°
2026-05-06 20:15 51.41244 12.22247 465 ft 84 kts 85°
2026-05-06 20:15 51.41280 12.23021 473 ft 56 kts 85°
2026-05-06 20:15 51.41305 12.23530 471 ft 42 kts 85°
2026-05-06 20:15 51.41298 12.23946 479 ft 34 kts 103°
2026-05-06 20:16 51.41238 12.24184 475 ft 14 kts 114°
2026-05-06 20:16 51.41203 12.24303 472 ft 6 kts 115°
2026-05-06 20:16 51.41201 12.24310 475 ft 0 kts 115°
2026-05-06 20:16 51.41197 12.24323 477 ft 4 kts 115°
2026-05-06 20:17 51.41186 12.24361 472 ft 0 kts 115°
2026-05-06 20:17 51.41181 12.24371 472 ft 4 kts 130°
2026-05-06 20:17 51.41123 12.24391 471 ft 14 kts 187°
2026-05-06 20:17 51.41080 12.24231 474 ft 21 kts 265°
2026-05-06 20:18 51.41065 12.23952 477 ft 29 kts 267°
2026-05-06 20:18 51.41048 12.23701 474 ft 17 kts 244°
2026-05-06 20:18 51.40923 12.23662 471 ft 19 kts 174°
2026-05-06 20:18 51.40879 12.23586 472 ft 5 kts 269°
2026-05-06 20:19 51.40879 12.23546 471 ft 0 kts 266°